Showing default

CO3D1, 64903

Orbit data source: Space-Track

CO3D1, 64903 is a payload satellite owned by CNES (FR) in SSO that was launched on Sat, 26 Jul 2025 UTC via a VEGA C launch vehicle from the French Guiana (FRGUI). Payload-class satellites include a variety of spacecraft equipped with specific instruments for various scientific and technological missions. These include communications satellites like Starlink; space stations such as the ISS; scientific satellites like the Hubble; Earth observation satellites from companies like Planet Labs, Umbra, and HawkEye 360; GPS; miniature CubeSats for education and research; and military/defense satellites.

Loading next visibility...
Identifier
64903, 2025-156E
Orbit
SSO
Country
Flag of FRFR
Related business
Manufacturer
Airbus/Toulouse
Mission
Operational Civil Science
Bus & Motor
ASTROBUS-SE, Unknown motor
Mass
285 kg wet, 285 kg dry
Launch date (UTC)
2025-07-26 (11 months ago)
Launch vehicle
VEGA C
Launch site
French Guiana (FRGUI)
Object type
Payload
Rocket body
Debris
Shape & HBR
Box + 2 Pan, 1.9 m
Radar Cross Section
1.001 m², Large (>1 m²)

Expand to show TLE details & history
Last TLE update: 19 hours ago

TLE from 19 hours ago
0 CO3D1
1 64903U 25156E   26171.05079051  .00004283  00000-0  20076-3 0  9990
2 64903  97.4325 249.6020 0001352 114.2620 245.8756 15.20215547 49961
Epoch: 2026-06-20T01:13Z
TLE epoch observation values (Epoch: 2026-06-20T01:13:08.300Z)
Latitude
-0.00005°
Longitude
-36.95355°
Altitude
508.66 km
Speed
7.609 km/s
True Right ascension
16h 38m 24s
True Declination
0° 00' 00"
Sunlit
Object was in full shadow at epoch
Visualization orbit readout
Latitude
Unknown
Longitude
Unknown
Altitude
Unknown
Speed
Unknown
Apparent Right ascension
Unknown
Apparent Declination
Unknown
Sunlit
N/A
Visualization observer readout
Local Sidereal Time
07:21:22
Azimuth
Unknown
Elevation
Unknown
Doppler factor
Unknown
Orbital elements
Apogee altitude
503.087 km
Perigee altitude
501.226 km
Semi-major axis
6,880.294 km
Eccentricity
0.00014
Inclination
97.4325°
RAAN
249.602°
Arg. of periapsis
114.262°
True anomaly
245.86146°
Mean anomaly
245.8756°
Eccentric anomaly
245.86853°
Mean motion
3.80306 °/min
Orbital period
94.66 mins
BSTAR
0.00020076
Loading maneuver chart data...
Computing Atmospheric mass density...
Loading historical data...
Loading historical data...
Loading historical data...
Loading historical data...
Loading historical data...
Loading historical data...
Loading historical data...
Other satellites on launch #156 in the year 2025 (2025-07-26 UTC)

Documentation

Showing up to 5 results
|